Location: Newark
(54.0500°N, 12.8333°E)
Time: 11:30:45
(UTC+00:00)

Transit 4A - Pass Details

Date: 27 January 2020
Orbit: 872 x 973 km, 66.8° (Epoch: 22 February)

Event Time Altitude Azimuth Distance (km) Brightness Sun altitude
Rises 06:24:08 0° 227° (SW) 3,530 10.7 -6.2°
Reaches altitude 10° 06:26:40 10° 229° (SW) 2,577 10.0 -5.8°
Maximum altitude 06:32:38 72° 314° (NW) 933 7.8 -5.0°
Drops below altitude 10° 06:38:30 10° 40° (NE) 2,541 10.4 -4.2°
Sets 06:41:00 0° 42° (NE) 3,477 11.1 -3.9°
